RH
20 21 21 27 30 33 33 30 34 32 35 28 34 43 41 40 50 60 57 54 47 60 65 71 74 65 56 53 49 39 28 37 34 29 42 62 68 57 49 58 59 53 48
17 20 29 33 36 36 32 30 32 35 34 27 33 44 45 48 52 56 59 66 56 51 50 62 73 65 54 48 44 36 22 29 30 34 49 64 59 48 55 54 53 48 55
18 20 34 38 36 38 42 45 45 38 28 26 27 45 52 52 52 55 73 74 69 58 50 41 49 66 61 39 28 50 37 32 32 35 61 61 48 52 56 43 45 56 60
19 20 34 37 34 31 25 23 23 26 26 27 30 45 56 58 53 61 71 69 74 48 50 49 46 38 35 26 42 62 31 13 40 48 73 62 50 53 50 44 45 50 51
20 18 22 27 25 23 23 17 18 22 27 26 29 41 60 63 58 62 76 69 53 61 42 50 47 46 20 15 48 74 52 14 51 68 74 64 58 54 48 57 52 43 37
22 22 28 28 24 22 22 17 17 18 26 34 37 49 63 70 69 73 78 54 62 46 47 47 57 53 18 10 47 45 35 18 51 72 66 46 61 46 57 50 43 15 22
25 24 23 25 28 27 24 18 20 22 25 35 48 62 73 73 68 68 52 47 62 51 41 48 54 58 14 10 45 26 14 17 50 46 54 42 38 38 23 23 18 13 13
26 23 26 28 29 27 26 18 27 34 33 35 54 71 82 81 74 61 72 76 75 57 59 53 51 47 16 13 17 15 14 17 35 51 26 22 30 30 18 16 13 13 14
25 23 24 26 26 27 26 16 31 46 46 57 70 76 97 98 97 99 87 95 81 72 64 42 39 38 22 16 19 15 15 18 20 20 25 18 18 17 15 15 16 15 13
25 25 24 25 28 29 25 13 32 45 56 58 71 86 93 96 86 100 98 94 89 81 73 64 34 29 30 22 18 16 18 18 21 24 26 14 15 15 18 17 14 10 8
26 27 28 27 31 30 21 12 30 40 63 62 64 76 95 97 93 95 94 96 93 96 85 69 38 34 29 26 19 21 19 19 19 18 16 16 18 19 18 11 8 8 8
28 29 30 31 30 29 24 12 19 34 54 68 67 63 78 98 100 98 97 98 96 99 97 81 72 59 26 41 23 22 20 18 20 19 18 20 21 17 10 8 8 8 8
30 34 32 36 32 30 27 17 12 18 29 49 73 70 63 82 99 96 99 96 91 96 97 95 94 61 53 54 25 20 19 24 25 24 22 23 19 11 9 8 8 8 8
32 33 32 37 34 31 28 26 12 12 15 30 45 68 63 70 97 99 98 95 79 99 99 98 86 55 62 44 26 25 25 26 27 26 23 21 12 9 9 9 9 9 9
33 37 33 38 34 31 28 30 21 10 12 17 31 45 40 51 96 85 100 95 98 99 99 100 78 64 72 36 28 31 30 30 29 25 20 12 9 11 10 10 10 11 11
35 34 35 38 32 39 38 33 26 12 12 15 20 38 54 44 58 94 100 98 99 99 99 96 72 69 52 29 32 32 33 33 26 20 12 10 12 11 11 12 13 13 12
29 30 39 37 44 49 47 33 19 12 12 16 22 34 77 84 74 99 95 98 99 100 100 98 63 49 41 33 48 37 37 34 25 14 11 12 12 13 14 15 14 13 15
26 32 38 43 50 55 48 31 15 12 13 18 34 55 71 92 79 84 95 90 99 100 99 99 44 51 46 48 36 35 39 35 22 15 15 15 14 16 15 16 16 18 21
25 28 33 42 52 59 46 34 15 12 15 27 60 66 78 77 82 84 99 100 100 100 100 98 42 37 51 38 38 43 42 37 23 20 16 17 17 17 17 17 18 22 26
24 29 30 38 47 62 54 36 13 11 16 42 62 68 74 82 95 97 100 88 98 100 100 90 40 50 45 34 40 44 43 37 25 19 18 20 19 19 19 18 20 24 28
23 26 27 31 45 62 62 34 11 13 19 51 56 74 79 95 100 98 99 87 100 99 100 99 92 71 52 44 45 54 42 38 28 23 27 23 23 22 22 21 22 25 31
24 26 26 29 44 57 63 36 10 14 29 56 74 79 84 89 97 100 97 100 100 98 100 100 73 50 48 51 48 43 40 48 34 28 52 55 32 26 29 33 30 28 34
24 24 25 29 43 54 64 41 11 17 37 59 73 79 84 93 98 99 100 100 100 100 100 95 45 43 42 49 46 41 42 42 42 46 39 30 26 27 29 30 34 36 43
24 24 26 36 43 50 65 41 13 19 46 66 75 84 88 94 99 100 98 100 100 100 99 96 45 46 47 49 48 48 79 85 53 33 26 28 42 66 71 37 32 35 36
23 24 26 39 46 52 55 37 14 22 53 63 76 84 94 92 100 99 99 99 99 100 100 94 52 43 53 57 54 56 52 61 45 67 37 37 38 40 44 48 74 73 49
23 24 28 40 48 58 57 36 14 22 53 63 76 83 85 90 100 98 100 99 99 99 100 62 44 46 63 62 67 90 88 84 73 60 57 43 36 46 47 56 76 75 66
Wind_Speed
4 6 10 14 14 13 12 12 10 8 7 8 12 13 13 12 10 12 11 7 6 10 11 11 10 10 10 10 10 10 11 11 10 10 11 12 13 12 11 11 10 10 10
7 8 10 14 14 14 13 13 12 11 8 9 13 14 13 13 13 14 12 11 7 9 11 12 12 12 11 11 11 11 12 10 11 14 13 13 13 12 11 11 10 9 10
9 9 9 13 14 13 15 17 16 14 12 11 14 16 15 15 15 16 15 12 10 9 10 10 12 13 13 11 11 10 11 10 10 13 14 13 12 12 13 12 10 10 11
8 7 9 12 16 16 16 15 14 15 15 15 16 16 17 17 18 18 17 15 11 11 10 10 12 13 14 13 11 12 10 8 12 13 13 12 12 12 12 11 11 10 9
7 6 7 7 8 9 9 9 10 11 16 18 19 17 17 17 19 20 19 18 14 13 13 13 11 13 14 14 15 14 9 9 14 13 14 12 10 12 12 11 11 10 10
7 7 7 10 11 11 9 9 10 11 16 21 20 20 20 21 21 22 22 20 17 18 16 14 14 12 13 14 16 15 13 12 15 16 15 12 14 11 10 11 10 10 11
10 9 10 12 10 11 10 11 12 13 16 21 22 22 24 24 25 26 24 22 21 19 17 15 15 12 13 14 16 14 14 15 16 19 17 16 16 14 13 13 11 10 11
11 11 10 10 12 13 13 14 13 15 19 21 23 25 26 27 27 27 26 25 21 21 20 17 14 14 13 13 15 15 16 17 19 18 19 19 17 15 12 11 11 11 11
12 10 8 12 14 14 14 15 13 16 21 24 24 26 28 27 33 34 29 28 24 23 22 18 16 15 14 15 16 16 16 18 20 20 19 18 16 14 12 12 13 12 11
13 9 8 12 14 14 15 14 13 15 20 24 26 28 29 25 35 34 30 32 27 24 23 20 17 17 15 16 17 17 18 19 20 19 19 17 17 15 13 13 13 13 12
15 11 9 12 14 15 15 13 13 14 18 22 26 27 27 28 27 24 18 26 31 26 25 22 19 18 19 19 19 18 19 20 18 20 22 16 16 14 13 13 13 12 13
16 11 9 11 14 14 15 12 12 14 14 21 24 27 29 28 25 20 18 26 28 35 27 22 19 20 21 21 22 22 21 20 18 18 16 16 15 14 13 13 13 13 13
19 14 11 11 13 12 14 13 13 13 12 18 23 24 28 29 28 28 22 20 29 41 32 32 24 24 22 22 22 22 21 19 18 18 16 15 14 13 14 13 13 14 14
20 17 13 12 14 12 14 14 13 14 15 16 22 26 28 29 31 30 27 20 28 28 36 37 27 25 25 24 23 21 21 20 19 19 16 16 15 13 14 12 14 14 15
24 21 13 13 13 12 13 15 15 15 17 17 19 25 28 29 29 33 25 25 23 26 31 35 30 28 26 25 24 22 20 19 17 18 17 17 15 14 13 14 15 15 15
28 22 15 13 12 11 13 14 17 16 18 19 21 24 26 28 25 24 23 25 21 26 31 33 30 29 26 26 24 22 20 19 18 18 18 15 16 14 15 15 16 17 17
26 22 17 15 13 12 15 15 16 16 20 21 22 24 25 22 25 26 25 24 18 24 33 33 31 29 27 27 24 21 20 18 18 18 18 18 14 16 17 18 19 18 18
25 23 18 17 15 13 15 16 16 17 21 21 22 22 23 25 26 28 30 22 25 26 33 32 32 31 29 27 25 22 20 18 19 19 19 16 15 20 19 21 21 21 19
25 23 20 19 18 15 15 17 18 17 19 19 19 21 23 24 26 27 32 31 24 23 37 35 34 32 30 28 25 24 21 19 19 20 19 16 20 21 22 23 23 23 22
25 24 21 22 20 16 15 18 19 16 17 18 20 22 24 24 26 30 30 27 23 24 35 41 32 31 30 28 26 24 23 21 21 21 18 19 20 22 24 24 24 24 24
29 27 22 21 21 17 16 19 18 17 17 17 18 18 19 19 33 23 36 28 35 23 32 36 34 33 32 29 28 26 24 23 23 22 20 18 17 24 24 25 25 25 25
31 27 24 20 22 18 17 18 18 18 16 16 18 15 13 13 19 33 36 36 32 32 28 36 32 33 34 31 29 26 27 25 24 21 23 21 25 25 24 24 24 26 26
30 26 22 20 20 19 17 18 18 17 14 16 18 17 18 16 18 31 39 33 33 33 34 36 34 35 32 29 29 27 28 29 24 25 22 24 24 23 22 25 25 26 27
30 26 22 20 19 19 17 17 17 15 10 14 18 18 18 18 11 23 34 29 36 30 37 35 34 34 32 30 30 31 26 19 20 26 24 25 28 30 31 29 28 27 30
33 29 23 22 19 17 16 16 15 12 11 16 19 19 19 14 10 14 21 24 33 38 35 37 35 36 33 31 30 29 26 24 25 21 23 24 24 23 27 28 30 31 31
34 29 27 24 20 17 15 15 13 10 10 14 16 17 17 15 14 13 25 21 30 34 35 33 34 34 32 32 29 29 32 32 32 28 25 30 26 25 27 28 25 22 31
Wind_Direction
313 288 293 254 254 245 250 244 252 227 243 245 231 241 245 238 242 250 257 261 223 203 200 202 203 205 205 205 209 216 218 205 200 197 179 169 165 163 158 155 151 153 152
337 335 257 246 244 244 241 246 246 244 235 236 222 229 237 239 241 251 254 258 250 228 217 210 204 203 205 215 231 235 225 205 189 181 177 175 170 166 161 155 150 155 151
337 341 254 240 242 246 254 262 259 250 235 230 219 219 232 239 241 244 246 250 256 249 240 223 217 214 221 228 231 218 189 182 181 183 178 177 175 171 168 162 159 156 153
342 318 261 254 262 267 268 263 256 248 241 235 224 216 223 234 239 241 244 248 245 251 244 230 226 230 229 228 213 185 173 178 175 181 179 185 182 181 175 173 166 169 162
330 290 275 244 263 267 281 279 263 242 239 236 231 222 219 227 236 239 241 242 240 237 242 238 235 231 226 219 204 195 196 186 181 181 183 189 184 185 188 182 174 183 194
324 314 275 268 281 279 282 287 278 250 236 237 233 227 222 226 230 233 237 239 234 242 232 230 238 238 225 219 210 207 204 192 185 193 199 198 191 191 192 196 212 217 209
299 307 295 287 298 299 292 287 279 256 238 236 235 231 227 227 228 226 230 229 235 237 234 230 240 237 224 217 210 215 209 195 187 205 212 206 208 212 212 220 221 212 201
287 308 304 293 304 307 305 297 282 256 240 235 234 232 230 231 227 228 222 224 231 226 222 227 232 235 225 214 215 216 212 201 198 207 216 215 211 213 215 214 204 201 196
277 305 294 297 300 301 302 298 286 263 241 232 229 230 229 222 222 217 216 214 217 220 219 226 229 227 222 219 217 214 211 211 209 207 211 213 212 209 203 201 200 203 201
266 287 299 312 308 305 306 295 286 268 248 236 233 231 230 231 240 215 204 210 214 219 222 224 223 222 224 221 212 215 209 208 213 209 211 209 205 196 198 202 209 204 199
250 269 294 309 300 304 309 297 287 281 251 241 234 236 238 235 255 262 248 225 221 217 217 223 221 221 214 212 211 210 207 210 210 214 216 202 202 195 205 204 209 204 202
235 252 276 295 296 303 314 300 291 279 261 247 237 234 239 244 242 239 233 232 261 239 210 215 210 208 211 210 204 204 205 209 214 219 214 208 207 201 203 207 208 207 204
229 246 260 279 288 295 308 301 289 281 265 251 242 240 238 240 241 237 245 252 265 232 225 209 205 206 201 208 204 205 206 206 213 217 213 213 212 205 204 205 206 201 196
230 240 256 272 278 286 300 302 291 278 269 254 250 243 242 238 238 244 251 252 264 229 228 206 200 201 199 206 204 203 206 208 211 219 212 209 208 208 207 200 199 195 192
230 235 243 265 271 280 297 299 294 277 270 262 251 249 242 240 231 243 239 247 243 221 211 194 197 199 201 205 203 203 206 211 213 216 211 209 198 201 199 194 195 196 197
234 232 235 254 261 275 297 297 290 278 270 263 258 252 239 236 234 224 234 240 219 211 205 191 196 197 203 202 203 205 209 212 213 213 204 198 195 194 197 198 200 197 193
224 225 229 243 249 268 293 292 289 277 273 266 258 248 242 231 232 228 227 234 202 203 199 196 194 199 201 203 203 206 212 214 213 209 197 197 194 202 200 200 199 194 191
220 221 225 239 248 267 286 294 290 282 276 269 250 236 236 233 233 223 220 218 203 220 210 197 197 197 199 202 203 210 214 211 213 204 206 191 202 209 204 201 196 193 194
221 224 231 243 249 265 286 301 292 284 279 267 238 228 231 232 229 225 218 212 211 217 211 204 198 195 199 201 205 209 212 216 214 210 210 189 213 210 208 203 199 199 200
222 226 234 245 252 261 291 301 292 290 283 262 228 228 227 231 228 214 209 202 204 216 206 187 193 195 201 201 206 211 212 214 213 213 205 206 209 219 215 209 207 208 209
224 229 237 248 252 261 285 300 293 288 280 243 223 223 230 238 228 209 201 204 211 216 199 197 191 198 202 202 208 210 217 219 215 216 206 210 231 227 223 220 216 216 217
228 234 236 244 249 258 278 295 291 284 270 223 214 222 223 235 246 238 214 214 208 200 210 208 190 200 205 207 212 213 218 218 218 220 219 216 231 235 232 229 227 227 227
230 235 236 234 240 251 270 289 285 285 261 222 213 209 217 245 270 220 222 215 207 209 209 194 199 203 208 212 214 220 219 226 228 228 224 222 230 239 246 240 236 235 234
230 233 230 215 230 247 267 280 281 286 249 220 219 217 227 253 294 216 208 208 211 211 200 199 201 206 212 214 216 220 222 222 231 232 231 233 234 236 246 242 244 245 245
234 231 227 210 221 242 259 271 276 277 240 215 217 218 223 248 268 197 190 195 212 200 196 196 203 209 210 215 218 224 231 235 231 231 239 242 244 240 234 241 251 251 244
231 224 213 209 213 229 253 266 269 272 243 221 218 223 223 232 232 192 195 203 197 202 204 208 209 213 215 219 225 236 237 241 241 243 246 256 253 249 246 243 238 260 244